Location: Observatoire de Paris
(48.8363°N, 2.3365°E)
Time: 18:55:02
(UTC+01:00)

METEOR M2 - Pass Details

Date: 21 September 2021
Orbit: 820 x 826 km, 98.5° (Epoch: 25 October)

Event Time Altitude Azimuth Distance (km) Brightness Sun altitude
Rises 19:51:14 0° 179° (S) 3,338 ? -10.7°
Reaches altitude 10° 19:53:38 10° 185° (S) 2,410 ? -11.1°
Maximum altitude 19:58:49 50° 261° (W) 1,034 ? -12.0°
Drops below altitude 10° 20:04:03 10° 336° (NNW) 2,428 ? -12.8°
Sets 20:06:29 0° 342° (NNW) 3,366 ? -13.2°
